User: anonymous   Login
Location: Azul
(36.7830°S, 59.8500°W)
Time: 01:02:28
(UTC-03:00)
Language:

NANOSAT C BR1 - Orbit

View from above orbital plane
View from above orbital plane
View from above satellite
View from above satellite

Ground track
Ground track

The orbit data is extracted from the following two-line orbital elements,

1 40024U 14033Q   21295.37983908  .00000942  00000-0  10200-3 0  9998
2 40024  97.9590 231.5008 0013394 109.0762 251.1907 14.90618977398507
Epoch (UTC): 22 October 2021 09:06:58
Eccentricity: 0.0013394
inclination: 97.9590°
perigee height: 586 km
apogee height: 605 km
right ascension of ascending node: 231.5008°
argument of perigee: 109.0762°
revolutions per day: 14.90618977
mean anomaly at epoch: 251.1907°
orbit number at epoch: 39850

The dashed part of the orbit path shows where the satellite is in the earth's shadow,  

DLR